Starlink 32780

operational
NORAD ID: 62746 Int'l Des: 2025-014 Owner: SPXS Country: US Constellation: starlink
LEOCIRCULAR

Starlink 32780について

説明を読み込み中...

リアルタイム位置

3D地球を読み込み中...

次回通過

高度履歴

Altitude vs Time

uPlot chart will show altitude changes over time

軌道要素

1 62746U 25014M 25302.98548942 .00050193 00000-0 18190-2 0 9997
2 62746 42.9995 172.8985 0001732 271.3705 88.6948 15.27618282 43263
Epoch: Oct 29, 2025 • Age: 42 hours

現在のステータス

高度 493.0 km
速度 7.62 km/s
衛星直下点 -38.88°S, 99.21°E
打ち上げ日 Jan 21, 2025
運用期間 0.7 years
タイプ internet

技術仕様

分類 Payload
質量 730.00 kg
乾燥質量 700.00 kg
総質量 730.00 kg
長さ 0.30 m
直径 4.10 m
スパン 29.00 m
形状 Box + pan
製造者 SPXS
バスタイプ Starlink V2M
フェーズステータス In Orbit
所有者/国 SPXS/US

大規模コンステレーション

Loading constellations...